owner,sensor,date,latitude,longitude,vertical_datum,sea_water_temperature,qcFlag 
TABS,ioos:station:wmo:42045:1,1999-04-01T00:00:00Z,26.2168,-96.4998,-2.0,21.37,11111222 
TABS,ioos:station:wmo:42045:1,1999-04-01T02:00:00Z,26.2168,-96.4998,-2.0,21.37,11111222 
TABS,ioos:station:wmo:42045:1,1999-04-01T02:30:00Z,26.2168,-96.4998,-2.0,21.38,11111222 
TABS,ioos:station:wmo:42045:1,1999-04-01T03:00:00Z,26.2168,-96.4998,-2.0,21.39,11111222 
TABS,ioos:station:wmo:42045:1,1999-04-01T03:30:00Z,26.2168,-96.4998,-2.0,21.37,11111222 
TABS,ioos:station:wmo:42045:1,1999-04-01T04:00:00Z,26.2168,-96.4998,-2.0,21.35,11111222 
TABS,ioos:station:wmo:42045:1,1999-04-01T04:30:00Z,26.2168,-96.4998,-2.0,21.33,11111222 
TABS,ioos:station:wmo:42045:1,1999-04-01T05:00:00Z,26.2168,-96.4998,-2.0,21.31,11111222 
TABS,ioos:station:wmo:42045:1,1999-04-01T05:30:00Z,26.2168,-96.4998,-2.0,21.29,11111222 
TABS,ioos:station:wmo:42045:1,1999-04-01T06:00:00Z,26.2168,-96.4998,-2.0,21.28,11111222 
TABS,ioos:station:wmo:42045:1,1999-04-01T06:30:00Z,26.2168,-96.4998,-2.0,21.27,11111222 
TABS,ioos:station:wmo:42045:1,1999-04-01T07:00:00Z,26.2168,-96.4998,-2.0,21.25,11111222 
TABS,ioos:station:wmo:42045:1,1999-04-01T07:30:00Z,26.2168,-96.4998,-2.0,21.25,11111222 
TABS,ioos:station:wmo:42045:1,1999-04-01T08:00:00Z,26.2168,-96.4998,-2.0,21.26,11111222 
TABS,ioos:station:wmo:42045:1,1999-04-01T08:30:00Z,26.2168,-96.4998,-2.0,21.3,11111222 
TABS,ioos:station:wmo:42045:1,1999-04-01T09:00:00Z,26.2168,-96.4998,-2.0,21.28,11111222 
TABS,ioos:station:wmo:42045:1,1999-04-01T09:30:00Z,26.2168,-96.4998,-2.0,21.27,11111222 
TABS,ioos:station:wmo:42045:1,1999-04-01T10:00:00Z,26.2168,-96.4998,-2.0,21.28,11111222 
TABS,ioos:station:wmo:42045:1,1999-04-01T10:30:00Z,26.2168,-96.4998,-2.0,21.27,11111222 
TABS,ioos:station:wmo:42045:1,1999-04-01T11:00:00Z,26.2168,-96.4998,-2.0,21.24,11111222 
TABS,ioos:station:wmo:42045:1,1999-04-01T11:30:00Z,26.2168,-96.4998,-2.0,21.23,11111222 
TABS,ioos:station:wmo:42045:1,1999-04-01T12:00:00Z,26.2168,-96.4998,-2.0,21.18,11111222 
TABS,ioos:station:wmo:42045:1,1999-04-01T12:30:00Z,26.2168,-96.4998,-2.0,21.16,11111222 
TABS,ioos:station:wmo:42045:1,1999-04-01T13:00:00Z,26.2168,-96.4998,-2.0,21.15,11111222 
TABS,ioos:station:wmo:42045:1,1999-04-01T13:30:00Z,26.2168,-96.4998,-2.0,21.15,11111222 
TABS,ioos:station:wmo:42045:1,1999-04-01T14:00:00Z,26.2168,-96.4998,-2.0,21.0,11111222 
TABS,ioos:station:wmo:42045:1,1999-04-01T14:30:00Z,26.2168,-96.4998,-2.0,20.98,11111222 
TABS,ioos:station:wmo:42045:1,1999-04-01T15:00:00Z,26.2168,-96.4998,-2.0,20.95,11111222 
TABS,ioos:station:wmo:42045:1,1999-04-01T15:30:00Z,26.2168,-96.4998,-2.0,20.94,11111222 
TABS,ioos:station:wmo:42045:1,1999-04-01T16:00:00Z,26.2168,-96.4998,-2.0,20.92,11111222 
TABS,ioos:station:wmo:42045:1,1999-04-01T16:30:00Z,26.2168,-96.4998,-2.0,20.88,11111222 
TABS,ioos:station:wmo:42045:1,1999-04-01T17:00:00Z,26.2168,-96.4998,-2.0,20.86,11111222 
TABS,ioos:station:wmo:42045:1,1999-04-02T12:00:00Z,26.2168,-96.4998,-2.0,20.88,11111222 
TABS,ioos:station:wmo:42045:1,1999-04-02T19:00:00Z,26.2168,-96.4998,-2.0,21.4,11111222 
TABS,ioos:station:wmo:42045:1,1999-04-02T19:30:00Z,26.2168,-96.4998,-2.0,21.42,11111222 
TABS,ioos:station:wmo:42045:1,1999-04-02T20:00:00Z,26.2168,-96.4998,-2.0,21.41,11111222 
TABS,ioos:station:wmo:42045:1,1999-04-02T20:30:00Z,26.2168,-96.4998,-2.0,21.37,11111222 
TABS,ioos:station:wmo:42045:1,1999-04-02T21:00:00Z,26.2168,-96.4998,-2.0,21.34,11111222 
TABS,ioos:station:wmo:42045:1,1999-04-02T21:30:00Z,26.2168,-96.4998,-2.0,21.33,11111222 
TABS,ioos:station:wmo:42045:1,1999-04-02T22:00:00Z,26.2168,-96.4998,-2.0,21.33,11111222 
TABS,ioos:station:wmo:42045:1,1999-04-02T22:30:00Z,26.2168,-96.4998,-2.0,21.25,11111222 
TABS,ioos:station:wmo:42045:1,1999-04-02T23:00:00Z,26.2168,-96.4998,-2.0,21.31,11111222 
TABS,ioos:station:wmo:42045:1,1999-04-02T23:30:00Z,26.2168,-96.4998,-2.0,21.31,11111222 
TABS,ioos:station:wmo:42045:1,1999-04-03T00:00:00Z,26.2168,-96.4998,-2.0,21.31,11111222 
TABS,ioos:station:wmo:42045:1,1999-04-03T00:30:00Z,26.2168,-96.4998,-2.0,21.31,11111222 
TABS,ioos:station:wmo:42045:1,1999-04-03T01:00:00Z,26.2168,-96.4998,-2.0,21.3,11111222 
TABS,ioos:station:wmo:42045:1,1999-04-03T01:30:00Z,26.2168,-96.4998,-2.0,21.28,11111222 
TABS,ioos:station:wmo:42045:1,1999-04-03T02:00:00Z,26.2168,-96.4998,-2.0,21.27,11111222 
TABS,ioos:station:wmo:42045:1,1999-04-03T02:30:00Z,26.2168,-96.4998,-2.0,21.26,11111222 
TABS,ioos:station:wmo:42045:1,1999-04-03T03:00:00Z,26.2168,-96.4998,-2.0,21.24,11111222 
TABS,ioos:station:wmo:42045:1,1999-04-03T03:30:00Z,26.2168,-96.4998,-2.0,21.2,11111222 
TABS,ioos:station:wmo:42045:1,1999-04-03T04:00:00Z,26.2168,-96.4998,-2.0,21.18,11111222 
TABS,ioos:station:wmo:42045:1,1999-04-03T04:30:00Z,26.2168,-96.4998,-2.0,21.18,11111222 
TABS,ioos:station:wmo:42045:1,1999-04-03T05:00:00Z,26.2168,-96.4998,-2.0,21.17,11111222 
TABS,ioos:station:wmo:42045:1,1999-04-03T05:30:00Z,26.2168,-96.4998,-2.0,21.16,11111222 
TABS,ioos:station:wmo:42045:1,1999-04-03T06:00:00Z,26.2168,-96.4998,-2.0,21.15,11111222 
TABS,ioos:station:wmo:42045:1,1999-04-03T06:30:00Z,26.2168,-96.4998,-2.0,21.15,11111222 
TABS,ioos:station:wmo:42045:1,1999-04-03T07:00:00Z,26.2168,-96.4998,-2.0,21.15,11111222 
TABS,ioos:station:wmo:42045:1,1999-04-03T07:30:00Z,26.2168,-96.4998,-2.0,21.15,11111222 
TABS,ioos:station:wmo:42045:1,1999-04-03T08:00:00Z,26.2168,-96.4998,-2.0,21.15,11111222 
TABS,ioos:station:wmo:42045:1,1999-04-03T08:30:00Z,26.2168,-96.4998,-2.0,21.15,11111222 
TABS,ioos:station:wmo:42045:1,1999-04-03T09:00:00Z,26.2168,-96.4998,-2.0,21.15,11111222 
TABS,ioos:station:wmo:42045:1,1999-04-03T09:30:00Z,26.2168,-96.4998,-2.0,21.15,11111222 
TABS,ioos:station:wmo:42045:1,1999-04-03T10:00:00Z,26.2168,-96.4998,-2.0,21.15,11111222 
TABS,ioos:station:wmo:42045:1,1999-04-03T10:30:00Z,26.2168,-96.4998,-2.0,21.15,11111222 
TABS,ioos:station:wmo:42045:1,1999-04-03T11:00:00Z,26.2168,-96.4998,-2.0,21.16,11111222 
TABS,ioos:station:wmo:42045:1,1999-04-03T11:30:00Z,26.2168,-96.4998,-2.0,21.15,11111222 
TABS,ioos:station:wmo:42045:1,1999-04-03T12:00:00Z,26.2168,-96.4998,-2.0,21.15,11111222 
TABS,ioos:station:wmo:42045:1,1999-04-03T12:30:00Z,26.2168,-96.4998,-2.0,21.15,11111222 
TABS,ioos:station:wmo:42045:1,1999-04-03T13:00:00Z,26.2168,-96.4998,-2.0,21.15,11111222 
TABS,ioos:station:wmo:42045:1,1999-04-03T13:30:00Z,26.2168,-96.4998,-2.0,21.16,11111222 
TABS,ioos:station:wmo:42045:1,1999-04-03T14:00:00Z,26.2168,-96.4998,-2.0,21.16,11111222 
TABS,ioos:station:wmo:42045:1,1999-04-03T14:30:00Z,26.2168,-96.4998,-2.0,21.18,11111222 
TABS,ioos:station:wmo:42045:1,1999-04-03T15:00:00Z,26.2168,-96.4998,-2.0,21.2,11111222 
TABS,ioos:station:wmo:42045:1,1999-04-03T15:30:00Z,26.2168,-96.4998,-2.0,21.23,11111222 
TABS,ioos:station:wmo:42045:1,1999-04-03T16:00:00Z,26.2168,-96.4998,-2.0,21.24,11111222 
TABS,ioos:station:wmo:42045:1,1999-04-03T16:30:00Z,26.2168,-96.4998,-2.0,21.23,11111222 
TABS,ioos:station:wmo:42045:1,1999-04-03T17:00:00Z,26.2168,-96.4998,-2.0,21.22,11111222 
TABS,ioos:station:wmo:42045:1,1999-04-03T17:30:00Z,26.2168,-96.4998,-2.0,21.19,11111222 
TABS,ioos:station:wmo:42045:1,1999-04-03T18:00:00Z,26.2168,-96.4998,-2.0,21.2,11111222 
TABS,ioos:station:wmo:42045:1,1999-04-03T18:30:00Z,26.2168,-96.4998,-2.0,21.21,11111222 
TABS,ioos:station:wmo:42045:1,1999-04-03T19:00:00Z,26.2168,-96.4998,-2.0,21.23,11111222 
TABS,ioos:station:wmo:42045:1,1999-04-03T19:30:00Z,26.2168,-96.4998,-2.0,21.26,11111222 
TABS,ioos:station:wmo:42045:1,1999-04-03T20:00:00Z,26.2168,-96.4998,-2.0,21.26,11111222 
TABS,ioos:station:wmo:42045:1,1999-04-03T20:30:00Z,26.2168,-96.4998,-2.0,21.26,11111222 
TABS,ioos:station:wmo:42045:1,1999-04-03T21:00:00Z,26.2168,-96.4998,-2.0,21.24,11111222 
TABS,ioos:station:wmo:42045:1,1999-04-03T21:30:00Z,26.2168,-96.4998,-2.0,21.23,11111222 
TABS,ioos:station:wmo:42045:1,1999-04-03T22:00:00Z,26.2168,-96.4998,-2.0,21.26,11111222 
TABS,ioos:station:wmo:42045:1,1999-04-03T22:30:00Z,26.2168,-96.4998,-2.0,21.29,11111222 
TABS,ioos:station:wmo:42045:1,1999-04-03T23:00:00Z,26.2168,-96.4998,-2.0,21.3,11111222 
TABS,ioos:station:wmo:42045:1,1999-04-03T23:30:00Z,26.2168,-96.4998,-2.0,21.29,11111222 
TABS,ioos:station:wmo:42045:1,1999-04-04T00:00:00Z,26.2168,-96.4998,-2.0,21.3,11111222 
TABS,ioos:station:wmo:42045:1,1999-04-04T00:30:00Z,26.2168,-96.4998,-2.0,21.3,11111222 
TABS,ioos:station:wmo:42045:1,1999-04-04T01:00:00Z,26.2168,-96.4998,-2.0,21.31,11111222 
TABS,ioos:station:wmo:42045:1,1999-04-04T01:30:00Z,26.2168,-96.4998,-2.0,21.32,11111222 
TABS,ioos:station:wmo:42045:1,1999-04-04T02:00:00Z,26.2168,-96.4998,-2.0,21.33,11111222 
TABS,ioos:station:wmo:42045:1,1999-04-04T02:30:00Z,26.2168,-96.4998,-2.0,21.34,11111222 
TABS,ioos:station:wmo:42045:1,1999-04-04T03:00:00Z,26.2168,-96.4998,-2.0,21.33,11111222 
TABS,ioos:station:wmo:42045:1,1999-04-04T03:30:00Z,26.2168,-96.4998,-2.0,21.33,11111222 
TABS,ioos:station:wmo:42045:1,1999-04-04T04:00:00Z,26.2168,-96.4998,-2.0,21.32,11111222 
TABS,ioos:station:wmo:42045:1,1999-04-04T04:30:00Z,26.2168,-96.4998,-2.0,21.3,11111222 
TABS,ioos:station:wmo:42045:1,1999-04-04T05:00:00Z,26.2168,-96.4998,-2.0,21.29,11111222 
TABS,ioos:station:wmo:42045:1,1999-04-04T05:30:00Z,26.2168,-96.4998,-2.0,21.24,11111222 
TABS,ioos:station:wmo:42045:1,1999-04-04T06:00:00Z,26.2168,-96.4998,-2.0,21.23,11111222 
TABS,ioos:station:wmo:42045:1,1999-04-04T06:30:00Z,26.2168,-96.4998,-2.0,21.24,11111222 
TABS,ioos:station:wmo:42045:1,1999-04-04T07:00:00Z,26.2168,-96.4998,-2.0,21.26,11111222 
TABS,ioos:station:wmo:42045:1,1999-04-04T07:30:00Z,26.2168,-96.4998,-2.0,21.27,11111222 
TABS,ioos:station:wmo:42045:1,1999-04-04T08:00:00Z,26.2168,-96.4998,-2.0,21.26,11111222 
TABS,ioos:station:wmo:42045:1,1999-04-04T08:30:00Z,26.2168,-96.4998,-2.0,21.25,11111222 
TABS,ioos:station:wmo:42045:1,1999-04-04T09:00:00Z,26.2168,-96.4998,-2.0,21.25,11111222 
TABS,ioos:station:wmo:42045:1,1999-04-04T09:30:00Z,26.2168,-96.4998,-2.0,21.26,11111222 
TABS,ioos:station:wmo:42045:1,1999-04-04T10:00:00Z,26.2168,-96.4998,-2.0,21.26,11111222 
TABS,ioos:station:wmo:42045:1,1999-04-04T10:30:00Z,26.2168,-96.4998,-2.0,21.25,11111222 
TABS,ioos:station:wmo:42045:1,1999-04-04T11:00:00Z,26.2168,-96.4998,-2.0,21.24,11111222 
TABS,ioos:station:wmo:42045:1,1999-04-04T11:30:00Z,26.2168,-96.4998,-2.0,21.24,11111222 
TABS,ioos:station:wmo:42045:1,1999-04-04T12:00:00Z,26.2168,-96.4998,-2.0,21.23,11111222 
TABS,ioos:station:wmo:42045:1,1999-04-04T12:30:00Z,26.2168,-96.4998,-2.0,21.22,11111222 
TABS,ioos:station:wmo:42045:1,1999-04-04T13:00:00Z,26.2168,-96.4998,-2.0,21.19,11111222 
TABS,ioos:station:wmo:42045:1,1999-04-04T13:30:00Z,26.2168,-96.4998,-2.0,21.15,11111222 
TABS,ioos:station:wmo:42045:1,1999-04-04T14:00:00Z,26.2168,-96.4998,-2.0,21.15,11111222 
TABS,ioos:station:wmo:42045:1,1999-04-04T14:30:00Z,26.2168,-96.4998,-2.0,21.16,11111222 
TABS,ioos:station:wmo:42045:1,1999-04-04T15:00:00Z,26.2168,-96.4998,-2.0,21.15,11111222 
TABS,ioos:station:wmo:42045:1,1999-04-04T15:30:00Z,26.2168,-96.4998,-2.0,21.19,11111222 
TABS,ioos:station:wmo:42045:1,1999-04-04T16:00:00Z,26.2168,-96.4998,-2.0,21.2,11111222 
TABS,ioos:station:wmo:42045:1,1999-04-04T16:30:00Z,26.2168,-96.4998,-2.0,21.27,11111222 
TABS,ioos:station:wmo:42045:1,1999-04-04T17:00:00Z,26.2168,-96.4998,-2.0,21.32,11111222 
TABS,ioos:station:wmo:42045:1,1999-04-04T17:30:00Z,26.2168,-96.4998,-2.0,21.36,11111222 
TABS,ioos:station:wmo:42045:1,1999-04-04T18:00:00Z,26.2168,-96.4998,-2.0,21.46,11111222 
TABS,ioos:station:wmo:42045:1,1999-04-04T18:30:00Z,26.2168,-96.4998,-2.0,21.4,11111222 
TABS,ioos:station:wmo:42045:1,1999-04-04T19:00:00Z,26.2168,-96.4998,-2.0,21.47,11111222 
TABS,ioos:station:wmo:42045:1,1999-04-04T19:30:00Z,26.2168,-96.4998,-2.0,21.58,11111222 
TABS,ioos:station:wmo:42045:1,1999-04-04T20:00:00Z,26.2168,-96.4998,-2.0,21.87,11111222 
TABS,ioos:station:wmo:42045:1,1999-04-04T20:30:00Z,26.2168,-96.4998,-2.0,21.88,11111222 
TABS,ioos:station:wmo:42045:1,1999-04-04T21:00:00Z,26.2168,-96.4998,-2.0,22.0,11111222 
TABS,ioos:station:wmo:42045:1,1999-04-04T21:30:00Z,26.2168,-96.4998,-2.0,21.9,11111222 
TABS,ioos:station:wmo:42045:1,1999-04-04T22:00:00Z,26.2168,-96.4998,-2.0,21.84,11111222 
TABS,ioos:station:wmo:42045:1,1999-04-04T22:30:00Z,26.2168,-96.4998,-2.0,21.83,11111222 
TABS,ioos:station:wmo:42045:1,1999-04-04T23:00:00Z,26.2168,-96.4998,-2.0,21.77,11111222 
TABS,ioos:station:wmo:42045:1,1999-04-04T23:30:00Z,26.2168,-96.4998,-2.0,21.77,11111222 
TABS,ioos:station:wmo:42045:1,1999-04-05T00:00:00Z,26.2168,-96.4998,-2.0,21.74,11111222 
TABS,ioos:station:wmo:42045:1,1999-04-05T00:30:00Z,26.2168,-96.4998,-2.0,21.68,11111222 
TABS,ioos:station:wmo:42045:1,1999-04-05T01:00:00Z,26.2168,-96.4998,-2.0,21.69,11111222 
TABS,ioos:station:wmo:42045:1,1999-04-05T01:30:00Z,26.2168,-96.4998,-2.0,21.66,11111222 
TABS,ioos:station:wmo:42045:1,1999-04-05T02:00:00Z,26.2168,-96.4998,-2.0,21.61,11111222 
TABS,ioos:station:wmo:42045:1,1999-04-05T02:30:00Z,26.2168,-96.4998,-2.0,21.54,11111222 
TABS,ioos:station:wmo:42045:1,1999-04-05T03:00:00Z,26.2168,-96.4998,-2.0,21.49,11111222 
TABS,ioos:station:wmo:42045:1,1999-04-05T03:30:00Z,26.2168,-96.4998,-2.0,21.46,11111222 
TABS,ioos:station:wmo:42045:1,1999-04-06T05:30:00Z,26.2168,-96.4998,-2.0,22.2,11111222 
TABS,ioos:station:wmo:42045:1,1999-04-06T06:00:00Z,26.2168,-96.4998,-2.0,22.2,11111222 
TABS,ioos:station:wmo:42045:1,1999-04-06T06:30:00Z,26.2168,-96.4998,-2.0,22.0,11111222 
TABS,ioos:station:wmo:42045:1,1999-04-06T07:00:00Z,26.2168,-96.4998,-2.0,21.8,11111222 
TABS,ioos:station:wmo:42045:1,1999-04-06T09:00:00Z,26.2168,-96.4998,-2.0,21.7,11111222 
TABS,ioos:station:wmo:42045:1,1999-04-06T09:30:00Z,26.2168,-96.4998,-2.0,21.7,11111222 
TABS,ioos:station:wmo:42045:1,1999-04-06T10:00:00Z,26.2168,-96.4998,-2.0,21.7,11111222 
TABS,ioos:station:wmo:42045:1,1999-04-06T10:30:00Z,26.2168,-96.4998,-2.0,21.7,11111222 
TABS,ioos:station:wmo:42045:1,1999-04-06T11:00:00Z,26.2168,-96.4998,-2.0,21.7,11111222 
TABS,ioos:station:wmo:42045:1,1999-04-06T11:30:00Z,26.2168,-96.4998,-2.0,21.7,11111222 
TABS,ioos:station:wmo:42045:1,1999-04-06T12:00:00Z,26.2168,-96.4998,-2.0,21.7,11111222 
TABS,ioos:station:wmo:42045:1,1999-04-06T12:30:00Z,26.2168,-96.4998,-2.0,21.7,11111222 
TABS,ioos:station:wmo:42045:1,1999-04-06T13:00:00Z,26.2168,-96.4998,-2.0,21.7,11111222 
TABS,ioos:station:wmo:42045:1,1999-04-06T13:30:00Z,26.2168,-96.4998,-2.0,21.8,11111222 
TABS,ioos:station:wmo:42045:1,1999-04-06T19:30:00Z,26.2168,-96.4998,-2.0,22.5,11111222 
TABS,ioos:station:wmo:42045:1,1999-04-06T20:00:00Z,26.2168,-96.4998,-2.0,22.5,11111222 
TABS,ioos:station:wmo:42045:1,1999-04-06T20:30:00Z,26.2168,-96.4998,-2.0,22.5,11111222 
TABS,ioos:station:wmo:42045:1,1999-04-06T21:00:00Z,26.2168,-96.4998,-2.0,22.5,11111222 
TABS,ioos:station:wmo:42045:1,1999-04-06T21:30:00Z,26.2168,-96.4998,-2.0,22.3,11111222 
TABS,ioos:station:wmo:42045:1,1999-04-06T22:00:00Z,26.2168,-96.4998,-2.0,22.3,11111222 
TABS,ioos:station:wmo:42045:1,1999-04-06T22:30:00Z,26.2168,-96.4998,-2.0,22.6,11111222 
TABS,ioos:station:wmo:42045:1,1999-04-06T23:00:00Z,26.2168,-96.4998,-2.0,22.5,11111222 
TABS,ioos:station:wmo:42045:1,1999-04-06T23:30:00Z,26.2168,-96.4998,-2.0,22.5,11111222 
TABS,ioos:station:wmo:42045:1,1999-04-07T00:00:00Z,26.2168,-96.4998,-2.0,22.6,11111222 
TABS,ioos:station:wmo:42045:1,1999-04-07T00:30:00Z,26.2168,-96.4998,-2.0,22.5,11111222 
TABS,ioos:station:wmo:42045:1,1999-04-07T01:00:00Z,26.2168,-96.4998,-2.0,22.6,11111222 
TABS,ioos:station:wmo:42045:1,1999-04-07T01:30:00Z,26.2168,-96.4998,-2.0,22.5,11111222 
TABS,ioos:station:wmo:42045:1,1999-04-07T02:00:00Z,26.2168,-96.4998,-2.0,22.5,11111222 
TABS,ioos:station:wmo:42045:1,1999-04-07T02:30:00Z,26.2168,-96.4998,-2.0,22.3,11111222 
TABS,ioos:station:wmo:42045:1,1999-04-07T04:00:00Z,26.2168,-96.4998,-2.0,22.27,11111222 
TABS,ioos:station:wmo:42045:1,1999-04-07T04:30:00Z,26.2168,-96.4998,-2.0,22.22,11111222 
TABS,ioos:station:wmo:42045:1,1999-04-07T05:00:00Z,26.2168,-96.4998,-2.0,22.24,11111222 
TABS,ioos:station:wmo:42045:1,1999-04-07T05:30:00Z,26.2168,-96.4998,-2.0,22.21,11111222 
TABS,ioos:station:wmo:42045:1,1999-04-07T06:00:00Z,26.2168,-96.4998,-2.0,22.19,11111222 
TABS,ioos:station:wmo:42045:1,1999-04-07T06:30:00Z,26.2168,-96.4998,-2.0,22.19,11111222 
TABS,ioos:station:wmo:42045:1,1999-04-07T07:00:00Z,26.2168,-96.4998,-2.0,22.19,11111222 
TABS,ioos:station:wmo:42045:1,1999-04-07T07:30:00Z,26.2168,-96.4998,-2.0,22.2,11111222 
TABS,ioos:station:wmo:42045:1,1999-04-07T08:00:00Z,26.2168,-96.4998,-2.0,22.2,11111222 
TABS,ioos:station:wmo:42045:1,1999-04-07T08:30:00Z,26.2168,-96.4998,-2.0,22.23,11111222 
TABS,ioos:station:wmo:42045:1,1999-04-07T09:00:00Z,26.2168,-96.4998,-2.0,22.23,11111222 
TABS,ioos:station:wmo:42045:1,1999-04-07T09:30:00Z,26.2168,-96.4998,-2.0,22.22,11111222 
TABS,ioos:station:wmo:42045:1,1999-04-07T10:00:00Z,26.2168,-96.4998,-2.0,22.22,11111222 
TABS,ioos:station:wmo:42045:1,1999-04-07T10:30:00Z,26.2168,-96.4998,-2.0,22.2,11111222 
TABS,ioos:station:wmo:42045:1,1999-04-07T11:00:00Z,26.2168,-96.4998,-2.0,22.19,11111222 
TABS,ioos:station:wmo:42045:1,1999-04-07T11:30:00Z,26.2168,-96.4998,-2.0,22.2,11111222 
TABS,ioos:station:wmo:42045:1,1999-04-07T12:00:00Z,26.2168,-96.4998,-2.0,22.18,11111222 
TABS,ioos:station:wmo:42045:1,1999-04-07T12:30:00Z,26.2168,-96.4998,-2.0,22.17,11111222 
TABS,ioos:station:wmo:42045:1,1999-04-07T13:00:00Z,26.2168,-96.4998,-2.0,22.17,11111222 
TABS,ioos:station:wmo:42045:1,1999-04-07T13:30:00Z,26.2168,-96.4998,-2.0,22.19,11111222 
TABS,ioos:station:wmo:42045:1,1999-04-07T14:00:00Z,26.2168,-96.4998,-2.0,22.2,11111222 
TABS,ioos:station:wmo:42045:1,1999-04-07T14:30:00Z,26.2168,-96.4998,-2.0,22.26,11111222 
TABS,ioos:station:wmo:42045:1,1999-04-07T15:00:00Z,26.2168,-96.4998,-2.0,22.3,11111222 
TABS,ioos:station:wmo:42045:1,1999-04-07T15:30:00Z,26.2168,-96.4998,-2.0,22.38,11111222 
TABS,ioos:station:wmo:42045:1,1999-04-07T16:00:00Z,26.2168,-96.4998,-2.0,22.44,11111222 
TABS,ioos:station:wmo:42045:1,1999-04-07T16:30:00Z,26.2168,-96.4998,-2.0,22.55,11111222 
TABS,ioos:station:wmo:42045:1,1999-04-07T17:00:00Z,26.2168,-96.4998,-2.0,22.66,11111222 
TABS,ioos:station:wmo:42045:1,1999-04-07T17:30:00Z,26.2168,-96.4998,-2.0,22.76,11111222 
TABS,ioos:station:wmo:42045:1,1999-04-07T18:00:00Z,26.2168,-96.4998,-2.0,22.87,11111222 
TABS,ioos:station:wmo:42045:1,1999-04-07T18:30:00Z,26.2168,-96.4998,-2.0,22.88,11111222 
TABS,ioos:station:wmo:42045:1,1999-04-07T19:00:00Z,26.2168,-96.4998,-2.0,22.98,11111222 
TABS,ioos:station:wmo:42045:1,1999-04-07T19:30:00Z,26.2168,-96.4998,-2.0,23.06,11111222 
TABS,ioos:station:wmo:42045:1,1999-04-07T20:00:00Z,26.2168,-96.4998,-2.0,23.06,11111222 
TABS,ioos:station:wmo:42045:1,1999-04-07T20:30:00Z,26.2168,-96.4998,-2.0,23.12,11111222 
TABS,ioos:station:wmo:42045:1,1999-04-07T21:00:00Z,26.2168,-96.4998,-2.0,23.11,11111222 
TABS,ioos:station:wmo:42045:1,1999-04-07T21:30:00Z,26.2168,-96.4998,-2.0,23.0,11111222 
TABS,ioos:station:wmo:42045:1,1999-04-07T22:00:00Z,26.2168,-96.4998,-2.0,23.02,11111222 
TABS,ioos:station:wmo:42045:1,1999-04-07T22:30:00Z,26.2168,-96.4998,-2.0,23.01,11111222 
TABS,ioos:station:wmo:42045:1,1999-04-07T23:00:00Z,26.2168,-96.4998,-2.0,23.0,11111222 
TABS,ioos:station:wmo:42045:1,1999-04-07T23:30:00Z,26.2168,-96.4998,-2.0,22.96,11111222 
TABS,ioos:station:wmo:42045:1,1999-04-08T00:00:00Z,26.2168,-96.4998,-2.0,22.95,11111222 
TABS,ioos:station:wmo:42045:1,1999-04-08T00:30:00Z,26.2168,-96.4998,-2.0,22.87,11111222 
TABS,ioos:station:wmo:42045:1,1999-04-08T01:00:00Z,26.2168,-96.4998,-2.0,22.81,11111222 
TABS,ioos:station:wmo:42045:1,1999-04-08T01:30:00Z,26.2168,-96.4998,-2.0,22.76,11111222 
TABS,ioos:station:wmo:42045:1,1999-04-08T02:00:00Z,26.2168,-96.4998,-2.0,22.67,11111222 
TABS,ioos:station:wmo:42045:1,1999-04-08T02:30:00Z,26.2168,-96.4998,-2.0,22.58,11111222 
TABS,ioos:station:wmo:42045:1,1999-04-08T03:00:00Z,26.2168,-96.4998,-2.0,22.45,11111222 
TABS,ioos:station:wmo:42045:1,1999-04-08T03:30:00Z,26.2168,-96.4998,-2.0,22.37,11111222 
TABS,ioos:station:wmo:42045:1,1999-04-08T04:00:00Z,26.2168,-96.4998,-2.0,22.27,11111222 
TABS,ioos:station:wmo:42045:1,1999-04-08T04:30:00Z,26.2168,-96.4998,-2.0,22.21,11111222 
TABS,ioos:station:wmo:42045:1,1999-04-08T05:00:00Z,26.2168,-96.4998,-2.0,22.15,11111222 
TABS,ioos:station:wmo:42045:1,1999-04-08T05:30:00Z,26.2168,-96.4998,-2.0,22.1,11111222 
TABS,ioos:station:wmo:42045:1,1999-04-08T06:00:00Z,26.2168,-96.4998,-2.0,22.03,11111222 
TABS,ioos:station:wmo:42045:1,1999-04-08T06:30:00Z,26.2168,-96.4998,-2.0,22.02,11111222 
TABS,ioos:station:wmo:42045:1,1999-04-08T07:00:00Z,26.2168,-96.4998,-2.0,21.99,11111222 
TABS,ioos:station:wmo:42045:1,1999-04-08T07:30:00Z,26.2168,-96.4998,-2.0,21.95,11111222 
TABS,ioos:station:wmo:42045:1,1999-04-08T08:00:00Z,26.2168,-96.4998,-2.0,22.02,11111222 
TABS,ioos:station:wmo:42045:1,1999-04-08T08:30:00Z,26.2168,-96.4998,-2.0,22.08,11111222 
TABS,ioos:station:wmo:42045:1,1999-04-08T09:00:00Z,26.2168,-96.4998,-2.0,21.99,11111222 
TABS,ioos:station:wmo:42045:1,1999-04-08T09:30:00Z,26.2168,-96.4998,-2.0,21.97,11111222 
TABS,ioos:station:wmo:42045:1,1999-04-08T10:00:00Z,26.2168,-96.4998,-2.0,22.03,11111222 
TABS,ioos:station:wmo:42045:1,1999-04-08T10:30:00Z,26.2168,-96.4998,-2.0,22.02,11111222 
TABS,ioos:station:wmo:42045:1,1999-04-08T11:00:00Z,26.2168,-96.4998,-2.0,22.0,11111222 
TABS,ioos:station:wmo:42045:1,1999-04-08T11:30:00Z,26.2168,-96.4998,-2.0,21.96,11111222 
TABS,ioos:station:wmo:42045:1,1999-04-08T12:00:00Z,26.2168,-96.4998,-2.0,21.91,11111222 
TABS,ioos:station:wmo:42045:1,1999-04-08T12:30:00Z,26.2168,-96.4998,-2.0,21.92,11111222 
TABS,ioos:station:wmo:42045:1,1999-04-08T13:00:00Z,26.2168,-96.4998,-2.0,21.93,11111222 
TABS,ioos:station:wmo:42045:1,1999-04-08T13:30:00Z,26.2168,-96.4998,-2.0,22.01,11111222 
TABS,ioos:station:wmo:42045:1,1999-04-08T14:00:00Z,26.2168,-96.4998,-2.0,22.05,11111222 
TABS,ioos:station:wmo:42045:1,1999-04-08T14:30:00Z,26.2168,-96.4998,-2.0,22.12,11111222 
TABS,ioos:station:wmo:42045:1,1999-04-08T15:00:00Z,26.2168,-96.4998,-2.0,22.17,11111222 
TABS,ioos:station:wmo:42045:1,1999-04-08T15:30:00Z,26.2168,-96.4998,-2.0,22.19,11111222 
TABS,ioos:station:wmo:42045:1,1999-04-08T16:00:00Z,26.2168,-96.4998,-2.0,22.23,11111222 
TABS,ioos:station:wmo:42045:1,1999-04-08T16:30:00Z,26.2168,-96.4998,-2.0,22.24,11111222 
TABS,ioos:station:wmo:42045:1,1999-04-08T17:00:00Z,26.2168,-96.4998,-2.0,22.26,11111222 
TABS,ioos:station:wmo:42045:1,1999-04-08T17:30:00Z,26.2168,-96.4998,-2.0,22.3,11111222 
TABS,ioos:station:wmo:42045:1,1999-04-08T18:00:00Z,26.2168,-96.4998,-2.0,22.33,11111222 
TABS,ioos:station:wmo:42045:1,1999-04-08T18:30:00Z,26.2168,-96.4998,-2.0,22.38,11111222 
TABS,ioos:station:wmo:42045:1,1999-04-08T19:00:00Z,26.2168,-96.4998,-2.0,22.42,11111222 
TABS,ioos:station:wmo:42045:1,1999-04-08T19:30:00Z,26.2168,-96.4998,-2.0,22.43,11111222 
TABS,ioos:station:wmo:42045:1,1999-04-08T20:00:00Z,26.2168,-96.4998,-2.0,22.43,11111222 
TABS,ioos:station:wmo:42045:1,1999-04-08T20:30:00Z,26.2168,-96.4998,-2.0,22.42,11111222 
TABS,ioos:station:wmo:42045:1,1999-04-08T21:00:00Z,26.2168,-96.4998,-2.0,22.38,11111222 
TABS,ioos:station:wmo:42045:1,1999-04-08T21:30:00Z,26.2168,-96.4998,-2.0,22.37,11111222 
TABS,ioos:station:wmo:42045:1,1999-04-08T22:00:00Z,26.2168,-96.4998,-2.0,22.36,11111222 
TABS,ioos:station:wmo:42045:1,1999-04-08T22:30:00Z,26.2168,-96.4998,-2.0,22.38,11111222 
TABS,ioos:station:wmo:42045:1,1999-04-08T23:00:00Z,26.2168,-96.4998,-2.0,22.39,11111222 
TABS,ioos:station:wmo:42045:1,1999-04-08T23:30:00Z,26.2168,-96.4998,-2.0,22.39,11111222 
TABS,ioos:station:wmo:42045:1,1999-04-09T00:00:00Z,26.2168,-96.4998,-2.0,22.32,11111222 
TABS,ioos:station:wmo:42045:1,1999-04-09T00:30:00Z,26.2168,-96.4998,-2.0,22.25,11111222 
TABS,ioos:station:wmo:42045:1,1999-04-09T01:00:00Z,26.2168,-96.4998,-2.0,22.25,11111222 
TABS,ioos:station:wmo:42045:1,1999-04-09T01:30:00Z,26.2168,-96.4998,-2.0,22.24,11111222 
TABS,ioos:station:wmo:42045:1,1999-04-09T02:00:00Z,26.2168,-96.4998,-2.0,22.21,11111222 